Iowa Falls, IA

6:33 PM CDT on May 23, 2018 (GMT -0500)
Iowa Falls Municipal

Weather History for KIFA - March, 2014

Change the Weather History Date:

Saturday, March 29, 2014

  Actual Average Record
Temperature  
Mean Temperature 38 °F -  
Max Temperature 47 °F 48 °F 86 °F (1986)
Min Temperature 29 °F 31 °F 2 °F (1969)
Degree Days  
Heating Degree Days 27    
Moisture  
Dew Point 27 °F    
Average Humidity 69    
Maximum Humidity 91    
Minimum Humidity 45    
Precipitation  
Precipitation 0.00 in - - ()
Sea Level Pressure  
Sea Level Pressure 30.22 in    
Wind  
Wind Speed 6 mph (NNW)    
Max Wind Speed 9 mph    
Max Gust Speed -    
Visibility 10 miles    
Events      
Averages and records for this station are not official NWS values.
T = Trace of Precipitation, MM = Missing Value Source: NWS Daily Summary

Daily Weather History Graph

Daily Weather History Graph

Search for Another Location

Airport or City:

Astronomy

Mar. 29, 2014 Rise Set
Actual Time 7:00 AM CDT 7:35 PM CDT
Civil Twilight 6:32 AM CDT 8:03 PM CDT
Nautical Twilight 5:58 AM CDT 8:37 PM CDT
Astronomical Twilight 5:24 AM CDT 9:12 PM CDT
Moon 6:11 AM CDT (3/29) 6:40 PM CDT (3/29)
Length of Visible Light 13h 31m
Length of Day
12h 35m
Waning Crescent, 2% of the Moon is Illuminated
Mar 29
Waning Crescent
Mar 30
New
Apr 7
First Quarter
Apr 15
Full
Apr 22
Last Quarter

Hourly Weather History & Observations

Time (CDT) Temp. Windchill Dew Point Humidity Pressure Visibility Wind Dir Wind Speed Gust Speed Precip Events Conditions
12:15 AM 32.5 °F 27.1 °F 29.8 °F 90% 30.21 in 10.0 mi NW 5.8 mph - N/A   Overcast
12:35 AM 32.4 °F 27.9 °F 30.0 °F 91% 30.20 in 10.0 mi NW 4.6 mph - N/A   Overcast
12:55 AM 32.4 °F 26.9 °F 29.3 °F 88% 30.20 in 10.0 mi NNW 5.8 mph - N/A   Overcast
1:15 AM 32.4 °F 26.9 °F 28.4 °F 85% 30.21 in 10.0 mi NNW 5.8 mph - N/A   Overcast
1:35 AM 32.5 °F 25.5 °F 27.5 °F 82% 30.21 in 10.0 mi NNW 8.1 mph - N/A   Overcast
1:55 AM 32.2 °F 25.0 °F 27.3 °F 82% 30.21 in 10.0 mi NNW 8.1 mph - N/A   Overcast
2:15 AM 32.0 °F 26.4 °F 27.5 °F 83% 30.22 in 10.0 mi NNW 5.8 mph - N/A   Scattered Clouds
2:35 AM 32.0 °F 25.6 °F 27.5 °F 83% 30.22 in 10.0 mi NNW 6.9 mph - N/A   Scattered Clouds
2:55 AM 32.0 °F 24.8 °F 27.5 °F 83% 30.22 in 10.0 mi NNW 8.1 mph - N/A   Mostly Cloudy
3:15 AM 32.0 °F 25.6 °F 27.1 °F 82% 30.22 in 10.0 mi NNW 6.9 mph - N/A   Overcast
3:35 AM 31.6 °F 24.4 °F 27.1 °F 83% 30.22 in 10.0 mi NNW 8.1 mph - N/A   Mostly Cloudy
3:55 AM 31.1 °F 23.7 °F 27.3 °F 86% 30.22 in 10.0 mi North 8.1 mph - N/A   Mostly Cloudy
4:15 AM 31.3 °F 24.7 °F 26.2 °F 82% 30.21 in 10.0 mi North 6.9 mph - N/A   Scattered Clouds
4:35 AM 30.9 °F 24.3 °F 26.6 °F 84% 30.21 in 10.0 mi North 6.9 mph - N/A   Clear
4:55 AM 30.7 °F 23.3 °F 26.4 °F 84% 30.21 in 10.0 mi NNW 8.1 mph - N/A   Clear
5:15 AM 30.6 °F 23.1 °F 26.1 °F 83% 30.22 in 10.0 mi NNW 8.1 mph - N/A   Clear
5:35 AM 30.2 °F 23.4 °F 25.7 °F 83% 30.22 in 10.0 mi North 6.9 mph - N/A   Clear
5:55 AM 30.2 °F 21.9 °F 25.3 °F 82% 30.22 in 10.0 mi NNW 9.2 mph - N/A   Clear
6:15 AM 30.2 °F 22.6 °F 24.4 °F 79% 30.23 in 10.0 mi North 8.1 mph - N/A   Clear
6:35 AM 29.8 °F 21.5 °F 24.1 °F 79% 30.24 in 10.0 mi NNW 9.2 mph - N/A   Clear
6:55 AM 29.7 °F 22.0 °F 24.6 °F 81% 30.24 in 10.0 mi NNW 8.1 mph - N/A   Clear
7:15 AM 29.7 °F 22.8 °F 24.6 °F 81% 30.24 in 10.0 mi NNW 6.9 mph - N/A   Clear
7:35 AM 29.3 °F 22.3 °F 24.6 °F 83% 30.25 in 10.0 mi NNW 6.9 mph - N/A   Clear
7:55 AM 29.8 °F 23.9 °F 24.6 °F 81% 30.26 in 10.0 mi NNW 5.8 mph - N/A   Clear
8:15 AM 30.6 °F 24.7 °F 24.4 °F 78% 30.26 in 10.0 mi NNW 5.8 mph - N/A   Clear
8:35 AM 31.1 °F 24.5 °F 24.4 °F 76% 30.26 in 10.0 mi North 6.9 mph - N/A   Clear
8:55 AM 31.8 °F 27.3 °F 22.8 °F 69% 30.26 in 10.0 mi North 4.6 mph - N/A   Clear
9:15 AM 32.5 °F 27.1 °F 23.9 °F 70% 30.26 in 10.0 mi North 5.8 mph - N/A   Clear
9:35 AM 33.8 °F 28.6 °F 22.3 °F 63% 30.26 in 10.0 mi North 5.8 mph - N/A   Clear
9:55 AM 34.9 °F 30.8 °F 23.9 °F 64% 30.26 in 10.0 mi North 4.6 mph - N/A   Clear
10:15 AM 35.8 °F 31.9 °F 23.4 °F 61% 30.28 in 10.0 mi North 4.6 mph - N/A   Clear
10:35 AM 36.7 °F 32.9 °F 22.5 °F 56% 30.28 in 10.0 mi North 4.6 mph - N/A   Clear
10:55 AM 37.4 °F - 23.0 °F 56% 30.28 in 10.0 mi Calm Calm - N/A   Clear
11:15 AM 37.9 °F - 23.0 °F 55% 30.28 in 10.0 mi Calm Calm - N/A   Clear
11:35 AM 38.1 °F 35.7 °F 23.5 °F 56% 30.27 in 10.0 mi WNW 3.5 mph - N/A   Clear
11:55 AM 38.8 °F - 22.8 °F 53% 30.28 in 10.0 mi Calm Calm - N/A   Clear
12:15 PM 39.6 °F - 21.2 °F 48% 30.27 in 10.0 mi Calm Calm - N/A   Clear
12:35 PM 40.5 °F - 21.6 °F 47% 30.26 in 10.0 mi Calm Calm - N/A   Clear
12:55 PM 42.3 °F - 24.1 °F 49% 30.25 in 10.0 mi Calm Calm - N/A   Clear
1:15 PM 41.7 °F - 21.9 °F 45% 30.26 in 10.0 mi Calm Calm - N/A   Clear
1:35 PM 42.3 °F 40.5 °F 23.4 °F 47% 30.26 in 10.0 mi North 3.5 mph - N/A   Clear
1:55 PM 42.6 °F 40.9 °F 22.3 °F 45% 30.25 in 10.0 mi SW 3.5 mph - N/A   Clear
2:15 PM 43.2 °F 41.5 °F 24.6 °F 48% 30.25 in 10.0 mi NNW 3.5 mph - N/A   Clear
2:35 PM 43.7 °F - 24.6 °F 47% 30.24 in 10.0 mi Calm Calm - N/A   Clear
2:55 PM 44.2 °F 41.0 °F 26.2 °F 49% 30.23 in 10.0 mi NNW 5.8 mph - N/A   Clear
3:15 PM 44.4 °F - 25.5 °F 48% 30.22 in 10.0 mi Calm Calm - N/A   Clear
3:35 PM 45.9 °F - 26.2 °F 46% 30.21 in 10.0 mi Calm Calm - N/A   Clear
3:55 PM 46.2 °F - 26.1 °F 45% 30.21 in 10.0 mi Calm Calm - N/A   Clear
4:15 PM 46.8 °F - 27.7 °F 47% 30.21 in 10.0 mi South 4.6 mph - N/A   Clear
4:35 PM 47.1 °F - 28.8 °F 49% 30.20 in 10.0 mi South 3.5 mph - N/A   Clear
4:55 PM 46.4 °F 45.2 °F 27.3 °F 47% 30.19 in 10.0 mi SSE 3.5 mph - N/A   Clear
5:15 PM 46.8 °F - 29.1 °F 50% 30.18 in 10.0 mi South 6.9 mph - N/A   Clear
5:35 PM 47.1 °F - 29.1 °F 50% 30.17 in 10.0 mi South 5.8 mph - N/A   Clear
5:55 PM 47.3 °F - 30.0 °F 51% 30.18 in 10.0 mi South 6.9 mph - N/A   Clear
6:15 PM 46.8 °F - 30.6 °F 53% 30.18 in 10.0 mi South 6.9 mph - N/A   Clear
6:35 PM 46.6 °F - 32.0 °F 57% 30.17 in 10.0 mi South 8.1 mph - N/A   Clear
6:55 PM 45.9 °F 41.7 °F 32.4 °F 59% 30.17 in 10.0 mi South 8.1 mph - N/A   Clear
7:15 PM 43.9 °F 39.9 °F 32.7 °F 65% 30.17 in 10.0 mi SSE 6.9 mph - N/A   Clear
7:35 PM 41.9 °F 38.2 °F 33.3 °F 71% 30.17 in 10.0 mi South 5.8 mph - N/A   Clear
7:55 PM 39.4 °F 35.2 °F 32.7 °F 77% 30.17 in 10.0 mi SSE 5.8 mph - N/A   Clear
8:15 PM 38.5 °F 33.4 °F 32.2 °F 78% 30.16 in 10.0 mi SSE 6.9 mph - N/A   Clear
8:35 PM 37.4 °F 32.1 °F 32.0 °F 81% 30.16 in 10.0 mi SE 6.9 mph - N/A   Clear
8:55 PM 36.9 °F 30.7 °F 32.0 °F 83% 30.16 in 10.0 mi SE 8.1 mph - N/A   Clear
9:15 PM 39.0 °F 32.8 °F 31.8 °F 75% 30.16 in 10.0 mi SE 9.2 mph - N/A   Clear
9:35 PM 37.8 °F 31.8 °F 31.6 °F 79% 30.16 in 10.0 mi SE 8.1 mph - N/A   Clear
9:55 PM 38.3 °F 32.5 °F 31.3 °F 76% 30.16 in 10.0 mi SE 8.1 mph - N/A   Clear
10:15 PM 36.1 °F 29.9 °F 31.1 °F 82% 30.16 in 10.0 mi SE 8.1 mph - N/A   Clear
10:35 PM 35.2 °F 28.1 °F 30.9 °F 84% 30.16 in 10.0 mi SSE 9.2 mph - N/A   Clear
10:55 PM 35.6 °F 28.6 °F 30.7 °F 82% 30.16 in 10.0 mi SSE 9.2 mph - N/A   Clear
11:15 PM 34.7 °F 28.1 °F 30.9 °F 86% 30.16 in 10.0 mi SE 8.1 mph - N/A   Clear
11:35 PM 34.7 °F 28.1 °F 30.6 °F 85% 30.16 in 10.0 mi SSE 8.1 mph - N/A   Clear
11:55 PM 34.9 °F 27.7 °F 30.6 °F 84% 30.16 in 10.0 mi SSE 9.2 mph - N/A   Clear